TimeCDT,TemperatureF,Dew PointF,Humidity,Sea Level PressureIn,VisibilityMPH,Wind Direction,Wind SpeedMPH,Gust SpeedMPH,PrecipitationIn,Events,Conditions,WindDirDegrees,DateUTC
12:56 AM,59.9,59.9,100,30.00,5.0,Calm,Calm,-,0.00,,Mostly Cloudy,0,2014-04-02 05:56:00
1:56 AM,59.9,59.9,100,29.99,5.0,Calm,Calm,-,N/A,,Partly Cloudy,0,2014-04-02 06:56:00
2:56 AM,61.0,61.0,100,29.97,7.0,SSE,4.6,-,N/A,,Scattered Clouds,150,2014-04-02 07:56:00
3:56 AM,61.9,61.9,100,29.98,6.0,Calm,Calm,-,N/A,,Mostly Cloudy,0,2014-04-02 08:56:00
4:56 AM,61.0,61.0,100,29.98,4.0,Calm,Calm,-,N/A,,Clear,0,2014-04-02 09:56:00
5:56 AM,61.0,61.0,100,29.99,5.0,Calm,Calm,-,N/A,,Partly Cloudy,0,2014-04-02 10:56:00
7:56 AM,63.9,63.9,100,30.00,6.0,South,6.9,-,N/A,,Mostly Cloudy,190,2014-04-02 12:56:00
8:39 AM,66.2,64.4,94,29.95,8.0,South,9.2,-,N/A,,Mostly Cloudy,180,2014-04-02 13:39:00
8:56 AM,65.8,64.9,97,29.99,7.0,South,8.1,-,N/A,,Overcast,180,2014-04-02 13:56:00
9:56 AM,68.0,65.8,93,30.00,9.0,South,11.5,-,N/A,,Overcast,180,2014-04-02 14:56:00
10:56 AM,70.0,65.8,87,30.00,9.0,South,9.2,-,0.00,,Overcast,180,2014-04-02 15:56:00
11:56 AM,70.9,66.9,87,29.99,9.0,South,10.4,-,N/A,,Overcast,180,2014-04-02 16:56:00
12:56 PM,72.0,66.9,84,29.97,10.0,South,12.7,-,N/A,,Overcast,170,2014-04-02 17:56:00
1:27 PM,71.6,66.2,83,29.92,10.0,South,11.5,-,N/A,,Overcast,170,2014-04-02 18:27:00
1:56 PM,72.9,66.9,82,29.94,10.0,South,12.7,-,N/A,,Overcast,180,2014-04-02 18:56:00
2:56 PM,74.8,68.0,79,29.93,10.0,South,15.0,-,N/A,,Mostly Cloudy,180,2014-04-02 19:56:00
3:33 PM,75.2,68.0,78,29.87,10.0,South,16.1,-,N/A,,Mostly Cloudy,180,2014-04-02 20:33:00
3:56 PM,77.0,68.9,76,29.90,10.0,South,12.7,-,N/A,,Mostly Cloudy,180,2014-04-02 20:56:00
4:39 PM,78.8,68.0,69,29.85,10.0,South,18.4,-,N/A,,Mostly Cloudy,180,2014-04-02 21:39:00
4:56 PM,77.0,68.0,74,29.90,10.0,South,19.6,-,N/A,,Mostly Cloudy,190,2014-04-02 21:56:00
5:56 PM,75.9,68.0,76,29.90,10.0,South,10.4,-,N/A,,Scattered Clouds,170,2014-04-02 22:56:00
6:56 PM,74.8,68.9,82,29.90,10.0,South,8.1,-,N/A,,Clear,170,2014-04-02 23:56:00
7:39 PM,73.4,69.8,88,29.85,10.0,SSE,8.1,-,N/A,,Mostly Cloudy,160,2014-04-03 00:39:00
7:56 PM,73.9,68.9,84,29.89,10.0,South,11.5,-,N/A,,Mostly Cloudy,180,2014-04-03 00:56:00
8:04 PM,73.4,69.8,88,29.85,10.0,South,10.4,-,N/A,,Partly Cloudy,170,2014-04-03 01:04:00
8:56 PM,72.9,68.9,87,29.90,10.0,South,9.2,-,N/A,,Clear,180,2014-04-03 01:56:00
9:56 PM,72.9,68.9,87,29.91,10.0,South,8.1,-,N/A,,Partly Cloudy,170,2014-04-03 02:56:00
10:56 PM,72.9,68.0,85,29.90,10.0,SSE,6.9,-,N/A,,Partly Cloudy,160,2014-04-03 03:56:00